Regional Weather Roundup
Issued by NWS

Home | Current Version | Previous Version | Graphics & Text | Print | Product List | Glossary Off
Versions: 1 2 3 4 5 6 7 8 9 10 11 12 13 14 15 16 17 18 19 20 21 22 23 24 25 26 27 28 29 30 31 32 33 34 35 36 37 38 39 40 41 42 43 44 45 46 47 48 49 50

000
ASUS43 KTOP 220508
RWRKS

WEATHER ROUNDUP FOR KANSAS
NATIONAL WEATHER SERVICE GOODLAND KS
1100 PM CST SUN DEC 21 2014

NOTE:  "FAIR" INDICATES FEW OR NO CLOUDS BELOW 12,000 FEET WITH NO
SIGNIFICANT WEATHER AND/OR OBSTRUCTIONS TO VISIBILITY.

KSZ001>006-013>018-027>032-041>047-220600-
NORTHWEST KANSAS

CITY           SKY/WX    TMP DP  RH WIND       PRES   REMARKS
GOODLAND       CLOUDY    42  36  79 W18       29.56R
HAYS           CLOUDY    43  36  75 S12       29.56F
HILL CITY      MOCLDY    42  36  79 W3        29.54S
RUSSELL        CLOUDY    43  42  97 S18       29.55F
$$

KSZ061>065-074>080-084>089-220600-
SOUTHWEST KANSAS

CITY           SKY/WX    TMP DP  RH WIND       PRES   REMARKS
DODGE CITY     CLOUDY    42  40  92 S15       29.57S FOG
ELKHART          N/A    N/A N/A N/A MISG        N/A
GARDEN CITY    PTCLDY    33  32  96 SW9       29.56S
GREAT BEND     CLOUDY    43  39  87 S16       29.58F
LIBERAL        PTCLDY    37  28  70 SW5       29.56F
PRATT          CLOUDY    43  41  93 S13       29.60F FOG
$$

KSZ066>073-081>083-090>101-220600-
SOUTHEAST KANSAS

CITY           SKY/WX    TMP DP  RH WIND       PRES   REMARKS
CHANUTE        CLOUDY    44  40  85 S16       29.75F
COFFEYVILLE    CLOUDY    44  42  93 SE13      29.75F FOG
HUTCHINSON     CLOUDY    44  42  93 S17       29.63F FOG
MEDICINE LODGE   N/A     44  44 100 SE9G18    29.61F
NEWTON         CLOUDY    43  37  81 S16       29.66F
PARSONS        CLOUDY    45  41  86 SE9G20    29.76F
WICHITA INTL   CLOUDY    45  42  89 S17G24    29.65F FOG
WICHITA JABRA  CLOUDY    43  42  97 S15       29.65F
WICHITA MCCONL CLOUDY    43  43 100 SE16      29.66F
WINFIELD       CLOUDY    44  43  96 SE15      29.68F
$$

KSZ007>012-019>026-033>040-048>060-102>105-220600-
NORTHEAST KANSAS

CITY           SKY/WX    TMP DP  RH WIND       PRES   REMARKS
CONCORDIA      CLOUDY    43  43 100 S15       29.62F FOG
EMPORIA        CLOUDY    43  41  93 S18       29.69F
LAWRENCE       CLOUDY    44  39  82 SE14      29.74F
MANHATTAN      CLOUDY    44  43  96 S15G25    29.67F
MARYSVILLE     LGT RAIN  43  41  93 S12G20    29.65F
OLATHE IND     CLOUDY    43  39  86 SE14      29.76F
OLATHE EXE     CLOUDY    42  38  85 S12G21    29.75F
SALINA         CLOUDY    45  43  93 S13G21    29.63F FOG
TOPEKA BILLARD CLOUDY    46  41  82 S9        29.73S
TOPEKA FORBES  CLOUDY    45  40  82 S14       29.71F
$$


USA.gov is the U.S. government's official web portal to all federal, state and local government web resources and services.